カタログに戻る

COSMOS 2251 DEB

運用中LEO
NORAD 39553·DEBRIS·🇷🇺 Russia

打ち上げ Jun 16, 1993 から Plesetsk Cosmodrome

Loading…

次のパス (今後24時間)

TLE

最新Source: Space-Track

元期: Sep 14, 2026, 03:11 UTC

1 39553U 93036BUK 26257.13307146  .00001690  00000-0  95440-3 0  9994
2 39553  74.0275 212.5437 0206882 285.0276  72.8045 14.00823002794727

AllMySatでCOSMOS 2251 DEBをリアルタイム追跡

Download on the App Store